Home > Weather > Nukualofa > Past weeks

Flag for Tonga Weather for the Past 2 Weeks in Nukualofa, Tonga

Now
84 °F

Broken clouds.


Feels Like: 98 °F
Forecast: 78 / 88 °F
Wind: No wind

Location: Fua'Amotu

Current Time: Feb 13, 2016 at 6:37:46 PM

Latest Report: Feb 13, 2016 at 6:00 PM


Visibility: N/A

Pressure: 29.83 "Hg

Humidity: 89%

Dew point: 81 °F

Location of NukualofaLocation

Historic Weather in Nukualofa — Graph

°F

Nukualofa Temperature Yesterday

Maximum temperature yesterday: 86 °F (at 1:00 PM)
Minimum temperature yesterday: 79 °F (at 2:00 AM)
Average temperature yesterday: 82 °F

High & Low Weather Summary for the Past Weeks

 TemperatureHumidityPressure
High93 °F (Feb 8, 3:00 PM)100% (Feb 1, 6:00 AM)30.04 "Hg (Feb 1, 6:00 AM)
Low70 °F (Feb 1, 6:00 AM)52% (Feb 10, 7:00 PM)29.68 "Hg (Feb 9, 3:00 AM)
Average82 °F84%29.86 "Hg
* Reported Jan 29 5:00 PM — Feb 13 5:00 PM, Nukualofa, Weather by CustomWeather, © 2016

Note: Actual official high and low records may vary slightly from our data, if they occured in-between our weather recording intervals... More about our weather records

Advertising

Nukualofa Weather History for the Previous 24 Hours

 ConditionsComfort  
Time TempWeatherWind HumidityBarometerVisibility
5:00 PM
Sat, Feb 13
84 °FBroken clouds.No wind84%29.83 "HgN/A
4:00 PM86 °FBroken clouds.No wind79%29.83 "HgN/A
3:00 PM86 °FBroken clouds.1 mph84%29.83 "HgN/A
2:00 PM86 °FBroken clouds.2 mph84%29.83 "HgN/A
1:00 PM86 °FBroken clouds.5 mph84%29.83 "HgN/A
12:00 PM86 °FBroken clouds.2 mph79%29.86 "HgN/A
11:00 AM86 °FBroken clouds.6 mph79%29.86 "HgN/A
10:00 AM86 °FBroken clouds.5 mph84%29.86 "HgN/A
9:00 AM84 °FPartly sunny.3 mph89%29.86 "HgN/A
8:00 AM82 °FPartly sunny.No wind89%29.86 "HgN/A
7:00 AM81 °FBroken clouds.No wind94%29.83 "HgN/A
6:00 AM81 °FPartly sunny.No wind94%29.83 "HgN/A
5:00 AM81 °FPassing clouds.No wind94%29.83 "HgN/A
4:00 AM81 °FLow clouds.No wind94%29.83 "HgN/A
3:00 AM81 °FSprinkles. Low clouds.No wind94%N/AN/A
2:00 AM81 °FDrizzle. Low clouds.No wind94%N/AN/A
1:00 AM81 °FMostly cloudy.No wind94%29.86 "HgN/A
12:00 AM81 °FMostly cloudy.No wind100%29.89 "HgN/A
11:00 PM
Fri, Feb 12
81 °FMostly cloudy.No wind100%29.92 "HgN/A
10:00 PM82 °FMostly cloudy.No wind94%29.89 "HgN/A
9:00 PM82 °FDrizzle. Mostly cloudy.No wind94%N/AN/A
8:00 PM82 °FMostly cloudy.No wind89%29.86 "HgN/A
7:00 PM82 °FMostly cloudy.No wind94%29.86 "HgN/A
6:00 PM82 °FMore clouds than sun.No wind94%29.86 "HgN/A
Weather by CustomWeather, © 2016

See weather overviewHow to use our weather pages